Alturas, CA

6:59 PM PST on February 07, 2016 (GMT -0800)
Alturas Municipal

Weather History for KAAT - April, 2013

Change the Weather History Date:

Friday, April 5, 2013

  Actual Average Record
Temperature  
Mean Temperature 46 °F 41 °F  
Max Temperature 56 °F 55 °F 81 °F (1960)
Min Temperature 36 °F 27 °F 7 °F (1997)
Degree Days  
Heating Degree Days 19 24  
Month to date heating degree days 89 123  
Since 1 July heating degree days 5442 5815  
Cooling Degree Days 0 0  
Month to date cooling degree days 0 0  
Year to date cooling degree days 0 0  
Moisture  
Dew Point 37 °F    
Average Humidity 74    
Maximum Humidity 100    
Minimum Humidity 47    
Precipitation  
Precipitation T in 0.04 in 0.33 in (1965)
Month to date precipitation 0.54 0.23  
Year to date precipitation 1.59 4.85  
Sea Level Pressure  
Sea Level Pressure 30.05 in    
Wind  
Wind Speed 7 mph (WSW)    
Max Wind Speed 22 mph    
Max Gust Speed 26 mph    
Visibility 10 miles    
Events Rain    
T = Trace of Precipitation, MM = Missing Value Source: NWS Daily Summary

Daily Weather History Graph

Daily Weather History Graph

Search for Another Location

Airport or City:

Trip Planner

Search our weather history database for the weather conditions in past years. The results will help you decide how hot, cold, wet, or windy it might be!

Date:

Astronomy

Apr. 05, 2013 Rise Set
Actual Time 6:38 AM PDT 7:32 PM PDT
Civil Twilight 6:09 AM PDT 8:00 PM PDT
Nautical Twilight 5:36 AM PDT 8:34 PM PDT
Astronomical Twilight 5:01 AM PDT 9:08 PM PDT
Moon 3:51 AM PDT (4/5) 2:58 PM PDT (4/5)
Length of Visible Light 13h 50m
Length of Day
12h 54m
Waning Crescent, 22% of the Moon is Illuminated
Apr 5
Waning Crescent
Apr 10
New
Apr 18
First Quarter
Apr 25
Full
May 2
Last Quarter

Hourly Weather History & Observations

Time (PDT) Temp. Windchill Dew Point Humidity Pressure Visibility Wind Dir Wind Speed Gust Speed Precip Events Conditions
12:27 AM 41.0 °F 38.0 °F 37.4 °F 87% 30.05 in 10.0 mi WSW 4.6 mph - 0.00 in Rain Light Rain
12:36 AM 41.0 °F 39.0 °F 37.4 °F 87% 30.05 in 10.0 mi WSW 3.5 mph - 0.00 in Rain Light Rain
12:55 AM 41.0 °F - 39.0 °F 93% 30.02 in 10.0 mi Calm Calm - 0.01 in Rain Light Rain
1:23 AM 41.0 °F 36.4 °F 37.4 °F 87% 30.05 in 10.0 mi West 6.9 mph - 0.00 in   Overcast
1:47 AM 39.2 °F 35.9 °F 37.4 °F 93% 30.05 in 10.0 mi West 4.6 mph - 0.00 in   Overcast
1:55 AM 39.9 °F 35.8 °F 37.0 °F 89% 30.04 in 10.0 mi SW 5.8 mph - 0.00 in   Overcast
2:55 AM 39.9 °F - 37.0 °F 89% 30.03 in 10.0 mi Calm Calm - N/A   Overcast
3:55 AM 39.9 °F - 37.9 °F 93% 30.04 in 10.0 mi Calm Calm - 0.00 in Rain Light Rain
5:55 AM 37.9 °F - 37.0 °F 97% 30.04 in 10.0 mi Calm Calm - N/A   Overcast
6:55 AM 39.0 °F - 37.9 °F 96% 30.05 in 10.0 mi Calm Calm - N/A   Overcast
7:55 AM 41.0 °F 38.0 °F 37.9 °F 89% 30.06 in 10.0 mi South 4.6 mph - N/A   Overcast
8:38 AM 42.8 °F - 39.2 °F 87% 30.08 in 10.0 mi Calm Calm - N/A   Overcast
8:55 AM 43.0 °F 41.3 °F 39.0 °F 86% 30.08 in 10.0 mi West 3.5 mph - N/A   Overcast
9:07 AM 44.6 °F - 37.4 °F 76% 30.09 in 10.0 mi Calm Calm - N/A   Overcast
9:55 AM 45.0 °F - 37.0 °F 74% 30.08 in 10.0 mi Calm Calm - N/A   Overcast
10:15 AM 44.6 °F - 37.4 °F 76% 30.09 in 10.0 mi Calm Calm - N/A   Overcast
10:27 AM 46.4 °F 44.3 °F 37.4 °F 71% 30.09 in 10.0 mi Variable 4.6 mph - N/A   Overcast
10:55 AM 48.0 °F - 37.9 °F 68% 30.07 in 10.0 mi Calm Calm - N/A   Overcast
11:55 AM 51.1 °F - 36.0 °F 56% 30.05 in 10.0 mi Variable 4.6 mph - N/A   Overcast
12:55 PM 53.1 °F - 37.0 °F 55% 30.05 in 10.0 mi WSW 16.1 mph - N/A   Overcast
1:55 PM 52.0 °F - 34.0 °F 50% 30.03 in 10.0 mi West 9.2 mph - N/A   Mostly Cloudy
2:55 PM 55.0 °F - 35.1 °F 47% 30.01 in 10.0 mi West 16.1 mph 25.3 mph N/A   Scattered Clouds
3:55 PM 51.1 °F - 37.0 °F 59% 30.02 in 10.0 mi West 17.3 mph 23.0 mph N/A   Scattered Clouds
4:55 PM 50.0 °F - 36.0 °F 59% 30.04 in 10.0 mi WSW 18.4 mph 24.2 mph N/A   Mostly Cloudy
5:55 PM 48.0 °F - 36.0 °F 63% 30.05 in 10.0 mi West 13.8 mph - N/A   Mostly Cloudy
6:55 PM 46.9 °F - 36.0 °F 66% 30.03 in 10.0 mi WSW 12.7 mph - N/A   Overcast
7:55 PM 45.0 °F 41.2 °F 37.0 °F 74% 30.03 in 10.0 mi WSW 6.9 mph - N/A   Overcast
8:55 PM 45.0 °F - 39.0 °F 80% 30.04 in 10.0 mi Calm Calm - N/A   Overcast
9:55 PM 45.0 °F 40.1 °F 37.0 °F 74% 30.05 in 10.0 mi SSW 9.2 mph - N/A   Overcast
10:55 PM 45.0 °F 41.2 °F 36.0 °F 71% 30.04 in 10.0 mi SW 6.9 mph - N/A   Overcast
11:55 PM 44.1 °F 42.5 °F 36.0 °F 73% 30.03 in 10.0 mi SW 3.5 mph - 0.00 in   Overcast